Squamish, British Columbia

2:13 PM PDT on October 19, 2017 (GMT -0700)
Squamish

Weather History for CWSK - July, 2013

Change the Weather History Date:

Wednesday, July 24, 2013

  Actual Average Record
Temperature  
Mean Temperature 69 °F -  
Max Temperature 84 °F - - ()
Min Temperature 54 °F - - ()
Cooling Degree Days 4    
Growing Degree Days 19 (Base 50)    
Moisture  
Dew Point 55 °F    
Average Humidity 62    
Maximum Humidity 92    
Minimum Humidity 25    
Precipitation  
Precipitation 0.00 in - - ()
Sea Level Pressure  
Sea Level Pressure 29.99 in    
Wind  
Wind Speed 3 mph ()    
Max Wind Speed 9 mph    
Max Gust Speed -    
T = Trace of Precipitation, MM = Missing Value Source: Averaged Metar Reports

Daily Weather History Graph

Daily Weather History Graph

Search for Another Location

Airport or City:

Trip Planner

Search our weather history database for the weather conditions in past years. The results will help you decide how hot, cold, wet, or windy it might be!

Date:

Astronomy

Jul. 24, 2013 Rise Set
Actual Time 5:32 AM PDT 9:05 PM PDT
Civil Twilight 4:52 AM PDT 9:44 PM PDT
Nautical Twilight 3:58 AM PDT 10:38 PM PDT
Astronomical Twilight 2:42 AM PDT 11:52 PM PDT
Moon 9:50 PM PDT (7/24) 8:19 AM PDT (7/24)
Length of Visible Light 16h 52m
Length of Day
15h 32m
Waning Gibbous, 94% of the Moon is Illuminated
Jul 24
Waning Gibbous
Jul 29
Last Quarter
Aug 6
New
Aug 14
First Quarter
Aug 20
Full

Hourly Weather History & Observations

Time (PDT) Temp. Heat Index Dew Point Humidity Pressure Visibility Wind Dir Wind Speed Gust Speed Precip Events Conditions
12:00 AM 61.3 °F - 57.2 °F 86% 29.98 in - NE 1.2 mph - N/A   Unknown
1:00 AM 60.3 °F - 56.7 °F 88% 29.99 in - NE 1.2 mph - N/A   Unknown
2:00 AM 59 °F - 56 °F 85% 30.00 in - NNE 2.3 mph - -  
2:00 AM 59.2 °F - 55.8 °F 88% 30.00 in - NNE 2.3 mph - N/A   Unknown
3:00 AM 58.1 °F - 55.2 °F 90% 30.01 in - NE 2.3 mph - N/A   Unknown
4:00 AM 56.3 °F - 54.1 °F 92% 30.01 in - North 2.3 mph - N/A   Unknown
5:00 AM 56 °F - 54 °F 89% 30.01 in - NNE 1.2 mph - -  
5:00 AM 56.3 °F - 53.6 °F 91% 30.01 in - NNE 1.2 mph - N/A   Unknown
6:00 AM 54.9 °F - 52.3 °F 91% 30.03 in - NE 1.2 mph - N/A   Unknown
7:00 AM 57.2 °F - 54.0 °F 89% 30.04 in - NNE 2.3 mph - N/A   Unknown
8:00 AM 63 °F - 55 °F 69% 30.04 in - North 2.3 mph - -  
8:00 AM 63.0 °F - 55.4 °F 76% 30.04 in - North 2.3 mph - N/A   Unknown
9:00 AM 67.3 °F - 54.3 °F 63% 30.02 in - North 2.3 mph - N/A   Unknown
10:00 AM 73.9 °F - 51.6 °F 45% 30.01 in - South 2.3 mph - N/A   Unknown
11:00 AM 74 °F - 54 °F 38% 30.01 in - SSE 9.2 mph - -  
11:00 AM 73.8 °F - 53.6 °F 49% 30.01 in - SSE 9.2 mph - N/A   Unknown
12:00 PM 76.1 °F - 54.9 °F 48% 30.00 in - SSE 8.1 mph - N/A   Unknown
1:00 PM 77.4 °F - 56.5 °F 48% 29.99 in - SSE 8.1 mph - N/A   Unknown
2:00 PM 80 °F - 56 °F 33% 29.98 in - SSE 8.1 mph - -  
2:00 PM 80.1 °F 80.2 °F 55.8 °F 43% 29.98 in - South 8.1 mph - N/A   Unknown
3:00 PM 81.3 °F 80.9 °F 54.9 °F 40% 29.97 in - South 9.2 mph - N/A   Unknown
4:00 PM 81.3 °F 80.9 °F 54.9 °F 40% 29.96 in - SSE 8.1 mph - N/A   Unknown
5:00 PM 83 °F - 53 °F 25% 29.95 in - SSE 6.9 mph - -  
5:00 PM 83.3 °F 82.0 °F 53.2 °F 35% 29.95 in - SSE 6.9 mph - N/A   Unknown
6:00 PM 82.9 °F - 52.2 °F 34% 29.94 in - SSE 6.9 mph - N/A   Unknown
7:00 PM 79.5 °F - 53.6 °F 41% 29.94 in - South 8.1 mph - N/A   Unknown
8:00 PM 75 °F - 55 °F 39% 29.95 in - South 4.6 mph - -  
8:00 PM 75.0 °F - 55.0 °F 50% 29.95 in - South 4.6 mph - N/A   Unknown
9:00 PM 69.6 °F - 57.2 °F 65% 29.96 in - ENE 1.2 mph - N/A   Unknown
10:00 PM 66.6 °F - 56.8 °F 71% 29.98 in - ENE 1.2 mph - N/A   Unknown
11:00 PM 64 °F - 57 °F 70% 29.99 in - NE 1.2 mph - -  
11:00 PM 63.7 °F - 56.7 °F 78% 29.99 in - NE 1.2 mph - N/A   Unknown